Rbgn^[z[y[W
メイン
   新天体発見情報
     Comet C/2024 L3 (PANSTARRS)
投稿するにはまず登録を

スレッド表示 | 新しいものから 前のトピック | 次のトピック | 下へ
投稿者 スレッド
佐藤裕久
投稿日時: 2024-7-20 14:05
モデレータ
登録日: 2005-6-12
居住地: 日本
投稿: 2585
オンライン
Comet C/2024 L3 (PANSTARRS)

R. Weryk (西オンタリオ大学,物理および天文学科)の通報によると、6月7日、Haleakalaにある
Pan-STARRS2 1.8-m Ritchey-Chretien反射望遠鏡で得た画像から彗星を発見した。
Werykは、6月10.26日UT、3.6-m Canada-France-Hawaii望遠鏡で、3枚の90-秒gri-バンドフォロー
アップ画像を得たが、これは明らかな尾を示し、0".8のシーイングで、この彗星は約1".4(半値
全幅:FWHM)の拡散した頭部が見え、p.a.140°に向かって2"の尾がある。6月29.4日、0".9のシー
イングで得た3枚の90-秒gri-バンドのCFHT追加画像では、1".2(FWHM)の非常に集光した頭部が見え、
p.a.145°に向かって6"のまっすぐな尾が伸びている。7月8.4日、0".6のシーイングで得た6枚の
90-秒gri-バンドCFHT画像では、1".2 (FWHM)の非常に集光した頭部が見え、p.a.135°に向かって
6"の尾がある。

彗星機能の報告は次のとおり、

OC   Date        Reporter           Coma    Tail    PA          Exposures
T14  2024-06-29  R. Weryk           0".3      6"    145            3x90s
T14  2024-07-08  R. Weryk           0".6      6"    135            6x90s

発見位置は次のとおり、

     2024 UT             R.A. (2000) Decl.       Mag.
     May  29.42910   17 05 49.71   +48 47 37.6   22.2
          29.46464   17 05 47.13   +48 47 48.9   22.3
     June  2.44050   17 01 00.37   +49 07 17.3   22.3
           2.45296   17 00 59.47   +49 07 20.9   21.7
           2.46538   17 00 58.56   +49 07 23.8   22.8
           7.47828   16 54 52.15   +49 27 33.9   22.4
           7.50203   16 54 50.38   +49 27 39.1   22.1
           7.51390   16 54 49.56   +49 27 40.7   21.7

MPCの双曲線軌道要素、位置推算表は次のとおり、

Orbital elements:
    C/2024 L3 (PANSTARRS)                                                       
Epoch 2023 Dec. 2.0 TT = JDT 2460280.5                                          
T 2023 Nov. 26.09058 TT                                 Rudenko                 
q   6.8594671            (2000.0)            P               Q                  
z  -0.0003836      Peri.   59.21488     -0.07052317     -0.53327916             
 +/-0.0000362      Node   294.96352     -0.86585892     +0.45234243             
e   1.0026314      Incl.  111.58611     +0.49529265     +0.71484240             
From 31 observations 2024 May 29-July 8, mean residual 0".4.                    
                                                                                
Ephemeris:
Date    TT    R. A. (2000) Decl.     Delta      r    Elong.  Phase   m1
2024 06 09    16 53 00.6 +49 32 44   6.6073  6.9791   107.4     8.0  22.0
...
2024 06 24    16 34 57.4 +49 59 50   6.6899  6.9978   103.5     8.1  22.1
...
2024 07 02    16 25 55.3 +49 57 49   6.7467  7.0084   100.8     8.2  22.1
...
2024 07 08    16 19 35.6 +49 49 37   6.7940  7.0165    98.5     8.2  22.1
2024 07 09    16 18 34.9 +49 47 45   6.8022  7.0179    98.1     8.2  22.1
2024 07 10    16 17 35.1 +49 45 44   6.8106  7.0193    97.7     8.3  22.1
...
2024 07 16    16 11 53.8 +49 30 58   6.8622  7.0277    95.2     8.3  22.2
...
2024 07 24    16 05 09.1 +49 05 01   6.9349  7.0393    91.7     8.3  22.2
...
2024 08 08    15 55 16.0 +48 02 20   7.0777  7.0619    85.0     8.2  22.2

(MPEC 2024-N105、CBET 5407)

スレッド表示 | 新しいものから 前のトピック | 次のトピック | トップ

投稿するにはまず登録を
 
© 1999 Tsutomu Seki.